Spokane Felts, WA

2:31 AM PST on February 20, 2018 (GMT -0800)
Felts

Weather History for KSFF - February, 2013

Change the Weather History Date:

Wednesday, February 6, 2013

  Actual Average Record
Temperature  
Mean Temperature 41 °F 33 °F  
Max Temperature 46 °F 40 °F 59 °F (2015)
Min Temperature 35 °F 27 °F -3 °F (2014)
Degree Days  
Heating Degree Days 24 32  
Month to date heating degree days 175 192  
Since 1 July heating degree days 3476 3904  
Cooling Degree Days 0 0  
Month to date cooling degree days 0 0  
Year to date cooling degree days 0 0  
Moisture  
Dew Point 30 °F    
Average Humidity 67    
Maximum Humidity 76    
Minimum Humidity 57    
Precipitation  
Precipitation 0.00 in 0.06 in 0.29 in (1999)
Month to date precipitation T 0.38  
Year to date precipitation 1.63 2.33  
Sea Level Pressure  
Sea Level Pressure 30.03 in    
Wind  
Wind Speed 5 mph (WSW)    
Max Wind Speed 13 mph    
Max Gust Speed 18 mph    
Visibility 10 miles    
Events      
T = Trace of Precipitation, MM = Missing Value Source: NWS Daily Summary

Daily Weather History Graph

Daily Weather History Graph

Search for Another Location

Airport or City:

Trip Planner

Search our weather history database for the weather conditions in past years. The results will help you decide how hot, cold, wet, or windy it might be!

Date:

Astronomy

Feb. 06, 2013 Rise Set
Actual Time 7:08 AM PST 4:58 PM PST
Civil Twilight 6:36 AM PST 5:31 PM PST
Nautical Twilight 5:59 AM PST 6:07 PM PST
Astronomical Twilight 5:23 AM PST 6:43 PM PST
Moon 4:05 AM PST (2/6) 1:13 PM PST (2/6)
Length of Visible Light 10h 55m
Length of Day
9h 50m
Waning Crescent, 16% of the Moon is Illuminated
Feb 6
Waning Crescent
Feb 9
New
Feb 17
First Quarter
Feb 25
Full
Mar 4
Last Quarter

Hourly Weather History & Observations

Time (PST) Temp. Windchill Dew Point Humidity Pressure Visibility Wind Dir Wind Speed Gust Speed Precip Events Conditions
12:53 AM 39.0 °F 32.3 °F 30.9 °F 73% 29.94 in 10.0 mi SW 10.4 mph - N/A   Mostly Cloudy
1:53 AM 39.0 °F 34.8 °F 30.9 °F 73% 29.95 in 10.0 mi WSW 5.8 mph - N/A   Overcast
2:53 AM 37.9 °F 30.9 °F 30.9 °F 76% 29.96 in 10.0 mi SW 10.4 mph - N/A   Mostly Cloudy
3:53 AM 37.0 °F 32.4 °F 30.0 °F 76% 29.98 in 10.0 mi WSW 5.8 mph - N/A   Mostly Cloudy
4:31 AM 37.4 °F 33.8 °F 30.2 °F 75% 29.96 in 10.0 mi SW 4.6 mph - N/A   Overcast
4:53 AM 37.0 °F 31.0 °F 30.0 °F 76% 30.00 in 10.0 mi SW 8.1 mph - N/A   Overcast
5:53 AM 37.0 °F 33.3 °F 30.0 °F 76% 30.00 in 10.0 mi WSW 4.6 mph - N/A   Overcast
6:53 AM 37.0 °F 31.0 °F 30.0 °F 76% 30.02 in 10.0 mi SW 8.1 mph - N/A   Mostly Cloudy
7:53 AM 37.0 °F 31.0 °F 30.9 °F 79% 30.04 in 10.0 mi WSW 8.1 mph - N/A   Mostly Cloudy
8:53 AM 39.0 °F 33.4 °F 30.9 °F 73% 30.05 in 10.0 mi SW 8.1 mph - N/A   Mostly Cloudy
9:53 AM 39.9 °F 36.7 °F 30.9 °F 70% 30.07 in 10.0 mi SW 4.6 mph - N/A   Mostly Cloudy
10:53 AM 42.1 °F 40.2 °F 30.9 °F 65% 30.08 in 10.0 mi West 3.5 mph - N/A   Scattered Clouds
11:53 AM 44.1 °F 39.5 °F 30.9 °F 60% 30.07 in 10.0 mi SSW 8.1 mph - N/A   Mostly Cloudy
12:53 PM 45.0 °F 42.6 °F 30.0 °F 56% 30.06 in 10.0 mi West 4.6 mph - N/A   Mostly Cloudy
1:53 PM 45.0 °F 41.8 °F 30.9 °F 58% 30.06 in 10.0 mi WSW 5.8 mph - N/A   Mostly Cloudy
2:53 PM 45.0 °F 43.5 °F 30.0 °F 56% 30.07 in 10.0 mi WSW 3.5 mph - N/A   Mostly Cloudy
3:53 PM 45.0 °F 42.6 °F 30.0 °F 56% 30.07 in 10.0 mi WSW 4.6 mph - N/A   Mostly Cloudy
4:53 PM 43.0 °F 40.3 °F 28.9 °F 58% 30.07 in 10.0 mi SSW 4.6 mph - N/A   Clear
5:53 PM 39.0 °F 36.8 °F 30.0 °F 70% 30.07 in 10.0 mi NNE 3.5 mph - N/A   Clear
6:53 PM 37.9 °F 35.5 °F 28.9 °F 70% 30.06 in 10.0 mi NNE 3.5 mph - N/A   Clear
7:53 PM 37.0 °F 33.3 °F 28.9 °F 73% 30.04 in 10.0 mi NNE 4.6 mph - N/A   Clear
8:53 PM 37.0 °F 34.5 °F 28.9 °F 73% 30.04 in 10.0 mi ENE 3.5 mph - N/A   Clear
9:53 PM 37.0 °F - 28.9 °F 73% 30.03 in 10.0 mi Calm Calm - N/A   Mostly Cloudy
10:53 PM 37.0 °F - 30.0 °F 76% 30.01 in 10.0 mi Calm Calm - N/A   Overcast
11:53 PM 36.0 °F 33.3 °F 30.0 °F 79% 29.99 in 10.0 mi North 3.5 mph - N/A   Overcast